PRIVATE WETTERSTATION BILLIGHEIM-ALLFELD                       ZURCK
Wetterdaten: Sonntag, 24.09.2017
Datum Zeit Temp. A. Temp. A. min Temp. A. max Feuchte A. Luftdruck Regen Wind Richtung Richtung Sonnenschein ET Solar Taupunkt Windchill Windben Empfang
24.09.2017 00:00 9,9 C 9,9 C 10,1 C 89 % 1020,1 hPa 0,0 l/m 1,6 km/h (1 Bft) N-NW 337 0 min 0,000 mm 0 W/m 8,2 C 9,9 C 3,2 km/h (1 Bft) 100 %
24.09.2017 00:10 9,8 C 9,8 C 9,9 C 89 % 1020,1 hPa 0,0 l/m 1,6 km/h (1 Bft) N-NW 337 0 min 0,000 mm 0 W/m 8,1 C 9,8 C 3,2 km/h (1 Bft) 99 %
24.09.2017 00:20 9,8 C 9,8 C 9,8 C 89 % 1020,1 hPa 0,0 l/m 1,6 km/h (1 Bft) N-NW 337 0 min 0,000 mm 0 W/m 8,1 C 9,8 C 4,8 km/h (1 Bft) 100 %
24.09.2017 00:30 9,7 C 9,7 C 9,8 C 89 % 1020,1 hPa 0,0 l/m 1,6 km/h (1 Bft) N-NW 337 0 min 0,000 mm 0 W/m 8,0 C 9,7 C 3,2 km/h (1 Bft) 100 %
24.09.2017 00:40 9,7 C 9,7 C 9,7 C 89 % 1020,1 hPa 0,0 l/m 0,0 km/h (0 Bft) N-NW 337 0 min 0,000 mm 0 W/m 8,0 C 9,7 C 1,6 km/h (1 Bft) 100 %
24.09.2017 00:50 9,7 C 9,7 C 9,7 C 89 % 1020,1 hPa 0,0 l/m 0,0 km/h (0 Bft) N 0 0 min 0,000 mm 0 W/m 8,0 C 9,7 C 0,0 km/h (0 Bft) 100 %
24.09.2017 01:00 9,6 C 9,6 C 9,7 C 89 % 1020,1 hPa 0,0 l/m 1,6 km/h (1 Bft) N-NW 337 0 min 0,000 mm 0 W/m 7,9 C 9,6 C 4,8 km/h (1 Bft) 100 %
24.09.2017 01:10 9,4 C 9,4 C 9,6 C 89 % 1020,2 hPa 0,0 l/m 3,2 km/h (1 Bft) N-NW 337 0 min 0,000 mm 0 W/m 7,7 C 9,4 C 4,8 km/h (1 Bft) 89 %
24.09.2017 01:20 9,3 C 9,3 C 9,4 C 89 % 1020,1 hPa 0,0 l/m 1,6 km/h (1 Bft) N-NW 337 0 min 0,000 mm 0 W/m 7,6 C 9,3 C 4,8 km/h (1 Bft) 100 %
24.09.2017 01:30 9,3 C 9,3 C 9,3 C 89 % 1020,1 hPa 0,0 l/m 1,6 km/h (1 Bft) N-NW 337 0 min 0,000 mm 0 W/m 7,6 C 9,3 C 4,8 km/h (1 Bft) 100 %
24.09.2017 01:40 9,3 C 9,3 C 9,3 C 89 % 1020,0 hPa 0,0 l/m 0,0 km/h (0 Bft) N 0 0 min 0,000 mm 0 W/m 7,6 C 9,3 C 0,0 km/h (0 Bft) 100 %
24.09.2017 01:50 9,2 C 9,2 C 9,3 C 89 % 1020,0 hPa 0,0 l/m 0,0 km/h (0 Bft) N 0 0 min 0,000 mm 0 W/m 7,5 C 9,2 C 0,0 km/h (0 Bft) 100 %
24.09.2017 02:00 9,2 C 9,2 C 9,2 C 89 % 1020,0 hPa 0,0 l/m 0,0 km/h (0 Bft) N 0 0 min 0,000 mm 0 W/m 7,5 C 9,2 C 0,0 km/h (0 Bft) 98 %
24.09.2017 02:10 9,1 C 9,1 C 9,2 C 89 % 1019,9 hPa 0,0 l/m 0,0 km/h (0 Bft) N 0 0 min 0,000 mm 0 W/m 7,4 C 9,1 C 0,0 km/h (0 Bft) 100 %
24.09.2017 02:20 8,9 C 8,9 C 9,1 C 89 % 1019,9 hPa 0,0 l/m 0,0 km/h (0 Bft) N-NW 337 0 min 0,000 mm 0 W/m 7,2 C 8,9 C 4,8 km/h (1 Bft) 100 %
24.09.2017 02:30 8,8 C 8,8 C 8,9 C 89 % 1019,9 hPa 0,0 l/m 1,6 km/h (1 Bft) N-NW 337 0 min 0,000 mm 0 W/m 7,1 C 8,8 C 6,4 km/h (2 Bft) 100 %
24.09.2017 02:40 8,9 C 8,8 C 8,9 C 89 % 1019,8 hPa 0,0 l/m 0,0 km/h (0 Bft) N-NW 337 0 min 0,000 mm 0 W/m 7,2 C 8,9 C 1,6 km/h (1 Bft) 100 %
24.09.2017 02:50 8,8 C 8,8 C 8,9 C 89 % 1019,8 hPa 0,0 l/m 0,0 km/h (0 Bft) N 0 0 min 0,000 mm 0 W/m 7,1 C 8,8 C 0,0 km/h (0 Bft) 100 %
24.09.2017 03:00 8,8 C 8,8 C 8,8 C 89 % 1019,8 hPa 0,0 l/m 1,6 km/h (1 Bft) N-NW 337 0 min 0,000 mm 0 W/m 7,1 C 8,8 C 4,8 km/h (1 Bft) 100 %
24.09.2017 03:10 8,8 C 8,8 C 8,8 C 89 % 1019,8 hPa 0,0 l/m 1,6 km/h (1 Bft) N-NW 337 0 min 0,000 mm 0 W/m 7,1 C 8,8 C 4,8 km/h (1 Bft) 100 %
24.09.2017 03:20 8,8 C 8,7 C 8,8 C 89 % 1019,8 hPa 0,0 l/m 0,0 km/h (0 Bft) N 0 0 min 0,000 mm 0 W/m 7,1 C 8,8 C 0,0 km/h (0 Bft) 100 %
24.09.2017 03:30 8,8 C 8,8 C 8,8 C 89 % 1019,8 hPa 0,0 l/m 0,0 km/h (0 Bft) N 0 0 min 0,000 mm 0 W/m 7,1 C 8,8 C 0,0 km/h (0 Bft) 100 %
24.09.2017 03:40 8,9 C 8,8 C 8,9 C 89 % 1019,8 hPa 0,0 l/m 0,0 km/h (0 Bft) N 0 0 min 0,000 mm 0 W/m 7,2 C 8,9 C 0,0 km/h (0 Bft) 99 %
24.09.2017 03:50 8,8 C 8,8 C 8,9 C 89 % 1019,7 hPa 0,0 l/m 0,0 km/h (0 Bft) N 0 0 min 0,000 mm 0 W/m 7,1 C 8,8 C 0,0 km/h (0 Bft) 100 %
24.09.2017 04:00 8,8 C 8,8 C 8,8 C 89 % 1019,7 hPa 0,0 l/m 0,0 km/h (0 Bft) N 0 0 min 0,000 mm 0 W/m 7,1 C 8,8 C 0,0 km/h (0 Bft) 100 %
24.09.2017 04:10 8,8 C 8,8 C 8,8 C 89 % 1019,7 hPa 0,0 l/m 0,0 km/h (0 Bft) N-NW 337 0 min 0,000 mm 0 W/m 7,1 C 8,8 C 3,2 km/h (1 Bft) 100 %
24.09.2017 04:20 8,8 C 8,8 C 8,8 C 89 % 1019,7 hPa 0,0 l/m 0,0 km/h (0 Bft) N 0 0 min 0,000 mm 0 W/m 7,1 C 8,8 C 0,0 km/h (0 Bft) 100 %
24.09.2017 04:30 8,9 C 8,8 C 8,9 C 89 % 1019,7 hPa 0,0 l/m 0,0 km/h (0 Bft) N 0 0 min 0,000 mm 0 W/m 7,2 C 8,9 C 0,0 km/h (0 Bft) 100 %
24.09.2017 04:40 8,9 C 8,9 C 8,9 C 90 % 1019,7 hPa 0,0 l/m 0,0 km/h (0 Bft) N 0 0 min 0,000 mm 0 W/m 7,4 C 8,9 C 0,0 km/h (0 Bft) 100 %
24.09.2017 04:50 8,8 C 8,8 C 8,9 C 89 % 1019,6 hPa 0,0 l/m 0,0 km/h (0 Bft) N 0 0 min 0,000 mm 0 W/m 7,1 C 8,8 C 0,0 km/h (0 Bft) 100 %
24.09.2017 05:00 8,8 C 8,8 C 8,9 C 89 % 1019,6 hPa 0,0 l/m 0,0 km/h (0 Bft) N 0 0 min 0,000 mm 0 W/m 7,1 C 8,8 C 0,0 km/h (0 Bft) 100 %
24.09.2017 05:10 8,8 C 8,8 C 8,8 C 89 % 1019,7 hPa 0,0 l/m 1,6 km/h (1 Bft) N-NW 337 0 min 0,000 mm 0 W/m 7,1 C 8,8 C 4,8 km/h (1 Bft) 100 %
24.09.2017 05:20 8,7 C 8,7 C 8,8 C 90 % 1019,7 hPa 0,0 l/m 0,0 km/h (0 Bft) N-NW 337 0 min 0,000 mm 0 W/m 7,2 C 8,7 C 3,2 km/h (1 Bft) 100 %
24.09.2017 05:30 8,7 C 8,7 C 8,7 C 90 % 1019,7 hPa 0,0 l/m 0,0 km/h (0 Bft) N 0 0 min 0,000 mm 0 W/m 7,2 C 8,7 C 0,0 km/h (0 Bft) 100 %
24.09.2017 05:40 8,7 C 8,7 C 8,7 C 90 % 1019,8 hPa 0,0 l/m 0,0 km/h (0 Bft) N 0 0 min 0,000 mm 0 W/m 7,2 C 8,7 C 0,0 km/h (0 Bft) 100 %
24.09.2017 05:50 8,9 C 8,7 C 8,9 C 90 % 1019,7 hPa 0,0 l/m 0,0 km/h (0 Bft) N 0 0 min 0,000 mm 0 W/m 7,4 C 8,9 C 0,0 km/h (0 Bft) 100 %
24.09.2017 06:00 9,1 C 8,9 C 9,1 C 90 % 1019,7 hPa 0,0 l/m 0,0 km/h (0 Bft) N 0 0 min 0,000 mm 0 W/m 7,5 C 9,1 C 0,0 km/h (0 Bft) 99 %
24.09.2017 06:10 9,2 C 9,1 C 9,2 C 90 % 1019,7 hPa 0,0 l/m 0,0 km/h (0 Bft) N 0 0 min 0,000 mm 0 W/m 7,6 C 9,2 C 0,0 km/h (0 Bft) 100 %
24.09.2017 06:20 9,3 C 9,2 C 9,3 C 90 % 1019,7 hPa 0,0 l/m 0,0 km/h (0 Bft) N 0 0 min 0,000 mm 0 W/m 7,7 C 9,3 C 0,0 km/h (0 Bft) 100 %
24.09.2017 06:30 9,2 C 9,2 C 9,3 C 90 % 1019,7 hPa 0,2 l/m 0,0 km/h (0 Bft) N 0 0 min 0,000 mm 0 W/m 7,6 C 9,2 C 0,0 km/h (0 Bft) 100 %
24.09.2017 06:40 9,1 C 9,1 C 9,2 C 90 % 1019,8 hPa 0,0 l/m 0,0 km/h (0 Bft) N 0 0 min 0,000 mm 0 W/m 7,5 C 9,1 C 0,0 km/h (0 Bft) 100 %
24.09.2017 06:50 8,9 C 8,9 C 9,1 C 90 % 1019,8 hPa 0,0 l/m 0,0 km/h (0 Bft) N 0 0 min 0,000 mm 0 W/m 7,4 C 8,9 C 0,0 km/h (0 Bft) 100 %
24.09.2017 07:00 8,8 C 8,8 C 8,9 C 90 % 1019,9 hPa 0,0 l/m 0,0 km/h (0 Bft) N 0 0 min 0,000 mm 0 W/m 7,3 C 8,8 C 0,0 km/h (0 Bft) 100 %
24.09.2017 07:10 8,8 C 8,8 C 8,8 C 90 % 1020,1 hPa 0,0 l/m 0,0 km/h (0 Bft) N 0 0 min 0,000 mm 0 W/m 7,3 C 8,8 C 0,0 km/h (0 Bft) 100 %
24.09.2017 07:20 8,9 C 8,8 C 8,9 C 90 % 1020,1 hPa 0,0 l/m 0,0 km/h (0 Bft) N 0 0 min 0,000 mm 5 W/m 7,4 C 8,9 C 0,0 km/h (0 Bft) 100 %
24.09.2017 07:30 8,9 C 8,9 C 8,9 C 90 % 1020,2 hPa 0,0 l/m 0,0 km/h (0 Bft) N 0 0 min 0,000 mm 11 W/m 7,4 C 8,9 C 0,0 km/h (0 Bft) 100 %
24.09.2017 07:40 9,1 C 8,9 C 9,1 C 90 % 1020,2 hPa 0,0 l/m 0,0 km/h (0 Bft) N 0 0 min 0,000 mm 16 W/m 7,5 C 9,1 C 0,0 km/h (0 Bft) 100 %
24.09.2017 07:50 9,1 C 9,1 C 9,1 C 90 % 1020,3 hPa 0,0 l/m 0,0 km/h (0 Bft) N 0 0 min 0,000 mm 25 W/m 7,5 C 9,1 C 0,0 km/h (0 Bft) 100 %
24.09.2017 08:00 9,2 C 9,1 C 9,2 C 90 % 1020,3 hPa 0,0 l/m 0,0 km/h (0 Bft) N 0 0 min 0,000 mm 40 W/m 7,6 C 9,2 C 0,0 km/h (0 Bft) 100 %
24.09.2017 08:10 9,3 C 9,2 C 9,3 C 90 % 1020,4 hPa 0,0 l/m 0,0 km/h (0 Bft) N 0 0 min 0,000 mm 49 W/m 7,7 C 9,3 C 0,0 km/h (0 Bft) 100 %
24.09.2017 08:20 9,3 C 9,2 C 9,3 C 90 % 1020,4 hPa 0,0 l/m 0,0 km/h (0 Bft) N 0 0 min 0,000 mm 56 W/m 7,7 C 9,3 C 0,0 km/h (0 Bft) 100 %
24.09.2017 08:30 9,4 C 9,3 C 9,4 C 90 % 1020,6 hPa 0,0 l/m 0,0 km/h (0 Bft) N 0 0 min 0,000 mm 70 W/m 7,8 C 9,4 C 0,0 km/h (0 Bft) 100 %
24.09.2017 08:40 9,6 C 9,4 C 9,6 C 90 % 1020,7 hPa 0,0 l/m 0,0 km/h (0 Bft) N 0 0 min 0,000 mm 77 W/m 8,0 C 9,6 C 0,0 km/h (0 Bft) 100 %
24.09.2017 08:50 9,9 C 9,6 C 9,9 C 90 % 1020,8 hPa 0,0 l/m 0,0 km/h (0 Bft) N 0 0 min 0,000 mm 79 W/m 8,3 C 9,9 C 0,0 km/h (0 Bft) 100 %
24.09.2017 09:00 10,2 C 9,9 C 10,2 C 90 % 1020,8 hPa 0,0 l/m 0,0 km/h (0 Bft) N 0 0 min 0,025 mm 86 W/m 8,6 C 10,2 C 0,0 km/h (0 Bft) 100 %
24.09.2017 09:10 10,6 C 10,2 C 10,6 C 90 % 1020,8 hPa 0,0 l/m 0,0 km/h (0 Bft) N 0 0 min 0,000 mm 100 W/m 9,0 C 10,6 C 0,0 km/h (0 Bft) 100 %
24.09.2017 09:20 10,8 C 10,6 C 10,8 C 90 % 1020,8 hPa 0,0 l/m 0,0 km/h (0 Bft) N 0 0 min 0,000 mm 104 W/m 9,2 C 10,8 C 0,0 km/h (0 Bft) 100 %
24.09.2017 09:30 11,2 C 10,8 C 11,2 C 90 % 1021,0 hPa 0,0 l/m 0,0 km/h (0 Bft) N 0 0 min 0,000 mm 109 W/m 9,6 C 11,2 C 0,0 km/h (0 Bft) 100 %
24.09.2017 09:40 11,6 C 11,2 C 11,6 C 90 % 1021,0 hPa 0,0 l/m 0,0 km/h (0 Bft) N 0 0 min 0,000 mm 113 W/m 10,0 C 11,6 C 0,0 km/h (0 Bft) 100 %
24.09.2017 09:50 11,7 C 11,6 C 11,7 C 90 % 1021,2 hPa 0,0 l/m 0,0 km/h (0 Bft) N 0 0 min 0,000 mm 118 W/m 10,1 C 11,7 C 0,0 km/h (0 Bft) 100 %
24.09.2017 10:00 11,9 C 11,7 C 11,9 C 90 % 1021,2 hPa 0,0 l/m 0,0 km/h (0 Bft) N 0 0 min 0,051 mm 121 W/m 10,3 C 11,9 C 0,0 km/h (0 Bft) 100 %
24.09.2017 10:10 12,1 C 11,9 C 12,1 C 90 % 1021,2 hPa 0,0 l/m 0,0 km/h (0 Bft) N 0 0 min 0,000 mm 118 W/m 10,5 C 12,1 C 0,0 km/h (0 Bft) 100 %
24.09.2017 10:20 12,3 C 12,1 C 12,3 C 90 % 1021,2 hPa 0,0 l/m 0,0 km/h (0 Bft) N-NW 337 0 min 0,000 mm 134 W/m 10,7 C 12,3 C 3,2 km/h (1 Bft) 100 %
24.09.2017 10:30 12,4 C 12,3 C 12,4 C 90 % 1021,1 hPa 0,0 l/m 0,0 km/h (0 Bft) N 0 0 min 0,000 mm 149 W/m 10,8 C 12,4 C 0,0 km/h (0 Bft) 100 %
24.09.2017 10:40 12,6 C 12,4 C 12,6 C 90 % 1021,2 hPa 0,0 l/m 0,0 km/h (0 Bft) N 0 10 min 0,000 mm 176 W/m 11,0 C 12,6 C 0,0 km/h (0 Bft) 100 %
24.09.2017 10:50 12,9 C 12,6 C 12,9 C 90 % 1021,1 hPa 0,0 l/m 0,0 km/h (0 Bft) N 0 10 min 0,000 mm 190 W/m 11,3 C 12,9 C 0,0 km/h (0 Bft) 99 %
24.09.2017 11:00 13,2 C 12,9 C 13,2 C 89 % 1021,2 hPa 0,0 l/m 0,0 km/h (0 Bft) N 0 10 min 0,076 mm 232 W/m 11,4 C 13,2 C 0,0 km/h (0 Bft) 100 %
24.09.2017 11:10 13,4 C 13,2 C 13,4 C 89 % 1021,1 hPa 0,0 l/m 0,0 km/h (0 Bft) N 360 10 min 0,000 mm 253 W/m 11,6 C 13,4 C 1,6 km/h (1 Bft) 100 %
24.09.2017 11:20 13,8 C 13,4 C 13,8 C 89 % 1021,2 hPa 0,0 l/m 0,0 km/h (0 Bft) N-NO 22 10 min 0,000 mm 290 W/m 12,0 C 13,8 C 4,8 km/h (1 Bft) 99 %
24.09.2017 11:30 14,1 C 13,8 C 14,1 C 89 % 1021,1 hPa 0,0 l/m 0,0 km/h (0 Bft) N-NO 22 10 min 0,000 mm 346 W/m 12,3 C 14,1 C 3,2 km/h (1 Bft) 100 %
24.09.2017 11:40 14,5 C 14,1 C 14,5 C 88 % 1021,2 hPa 0,0 l/m 0,0 km/h (0 Bft) N 0 10 min 0,000 mm 329 W/m 12,5 C 14,5 C 0,0 km/h (0 Bft) 100 %
24.09.2017 11:50 14,7 C 14,5 C 14,7 C 87 % 1021,2 hPa 0,0 l/m 0,0 km/h (0 Bft) N-NO 22 10 min 0,000 mm 283 W/m 12,6 C 14,7 C 4,8 km/h (1 Bft) 100 %
24.09.2017 12:00 15,0 C 14,7 C 15,0 C 87 % 1021,3 hPa 0,0 l/m 1,6 km/h (1 Bft) N 360 10 min 0,152 mm 332 W/m 12,9 C 15,0 C 6,4 km/h (2 Bft) 100 %
24.09.2017 12:10 15,1 C 15,0 C 15,1 C 86 % 1021,2 hPa 0,0 l/m 3,2 km/h (1 Bft) N 360 10 min 0,000 mm 311 W/m 12,8 C 15,1 C 6,4 km/h (2 Bft) 99 %
24.09.2017 12:20 15,4 C 15,1 C 15,4 C 84 % 1021,2 hPa 0,0 l/m 1,6 km/h (1 Bft) N-NW 337 10 min 0,000 mm 332 W/m 12,7 C 15,4 C 8,0 km/h (2 Bft) 100 %
24.09.2017 12:30 15,7 C 15,4 C 15,7 C 83 % 1021,2 hPa 0,0 l/m 3,2 km/h (1 Bft) N-NW 337 10 min 0,000 mm 420 W/m 12,8 C 15,7 C 4,8 km/h (1 Bft) 100 %
24.09.2017 12:40 15,9 C 15,7 C 15,9 C 80 % 1021,0 hPa 0,0 l/m 1,6 km/h (1 Bft) N 360 10 min 0,000 mm 534 W/m 12,5 C 15,9 C 4,8 km/h (1 Bft) 100 %
24.09.2017 12:50 16,6 C 15,9 C 16,6 C 78 % 1021,0 hPa 0,0 l/m 0,0 km/h (0 Bft) N 360 10 min 0,000 mm 735 W/m 12,7 C 16,6 C 4,8 km/h (1 Bft) 99 %
24.09.2017 13:00 17,1 C 16,6 C 17,1 C 78 % 1020,8 hPa 0,0 l/m 0,0 km/h (0 Bft) N 360 10 min 0,229 mm 585 W/m 13,2 C 17,1 C 6,4 km/h (2 Bft) 100 %
24.09.2017 13:10 17,5 C 17,1 C 17,5 C 76 % 1020,9 hPa 0,0 l/m 0,0 km/h (0 Bft) N 360 10 min 0,000 mm 719 W/m 13,2 C 17,5 C 4,8 km/h (1 Bft) 100 %
24.09.2017 13:20 17,7 C 17,5 C 17,7 C 74 % 1020,9 hPa 0,0 l/m 1,6 km/h (1 Bft) N-NO 22 10 min 0,000 mm 656 W/m 13,0 C 17,7 C 4,8 km/h (1 Bft) 100 %
24.09.2017 13:30 17,7 C 17,6 C 17,7 C 73 % 1020,9 hPa 0,0 l/m 0,0 km/h (0 Bft) N-NO 22 10 min 0,000 mm 635 W/m 12,8 C 17,7 C 4,8 km/h (1 Bft) 100 %
24.09.2017 13:40 17,8 C 17,7 C 17,8 C 70 % 1020,8 hPa 0,0 l/m 1,6 km/h (1 Bft) N-NO 22 10 min 0,000 mm 663 W/m 12,3 C 17,8 C 6,4 km/h (2 Bft) 100 %
24.09.2017 13:50 18,1 C 17,8 C 18,1 C 71 % 1020,6 hPa 0,0 l/m 1,6 km/h (1 Bft) NW 315 10 min 0,000 mm 671 W/m 12,8 C 18,1 C 6,4 km/h (2 Bft) 100 %
24.09.2017 14:00 18,4 C 18,1 C 18,4 C 72 % 1020,6 hPa 0,0 l/m 4,8 km/h (1 Bft) N-NW 337 10 min 0,330 mm 661 W/m 13,3 C 18,4 C 9,7 km/h (2 Bft) 100 %
24.09.2017 14:10 18,7 C 18,4 C 18,7 C 70 % 1020,5 hPa 0,0 l/m 3,2 km/h (1 Bft) NW 315 10 min 0,000 mm 656 W/m 13,1 C 18,7 C 9,7 km/h (2 Bft) 100 %
24.09.2017 14:20 18,6 C 18,6 C 18,7 C 67 % 1020,5 hPa 0,0 l/m 0,0 km/h (0 Bft) NW 315 10 min 0,000 mm 610 W/m 12,3 C 18,6 C 6,4 km/h (2 Bft) 100 %
24.09.2017 14:30 17,9 C 17,9 C 18,6 C 71 % 1020,5 hPa 0,0 l/m 0,0 km/h (0 Bft) NW 315 10 min 0,000 mm 195 W/m 12,6 C 17,9 C 4,8 km/h (1 Bft) 100 %
24.09.2017 14:40 17,6 C 17,6 C 17,9 C 71 % 1020,4 hPa 0,0 l/m 0,0 km/h (0 Bft) NW 315 10 min 0,000 mm 596 W/m 12,3 C 17,6 C 3,2 km/h (1 Bft) 100 %
24.09.2017 14:50 17,8 C 17,6 C 17,8 C 70 % 1020,3 hPa 0,0 l/m 0,0 km/h (0 Bft) NW 315 10 min 0,000 mm 468 W/m 12,3 C 17,8 C 4,8 km/h (1 Bft) 100 %
24.09.2017 15:00 17,9 C 17,8 C 17,9 C 71 % 1020,2 hPa 0,0 l/m 1,6 km/h (1 Bft) NW 315 10 min 0,178 mm 334 W/m 12,6 C 17,9 C 4,8 km/h (1 Bft) 100 %
24.09.2017 15:10 18,0 C 17,9 C 18,0 C 72 % 1020,3 hPa 0,0 l/m 0,0 km/h (0 Bft) NW 315 10 min 0,000 mm 311 W/m 12,9 C 18,0 C 6,4 km/h (2 Bft) 100 %
24.09.2017 15:20 17,8 C 17,8 C 18,0 C 70 % 1020,2 hPa 0,0 l/m 0,0 km/h (0 Bft) NW 315 0 min 0,000 mm 144 W/m 12,3 C 17,8 C 6,4 km/h (2 Bft) 100 %
24.09.2017 15:30 17,7 C 17,7 C 17,8 C 68 % 1020,1 hPa 0,0 l/m 0,0 km/h (0 Bft) NW 315 10 min 0,000 mm 540 W/m 11,7 C 17,7 C 6,4 km/h (2 Bft) 100 %
24.09.2017 15:40 18,2 C 17,7 C 18,2 C 67 % 1020,2 hPa 0,0 l/m 1,6 km/h (1 Bft) NO 45 10 min 0,000 mm 564 W/m 12,0 C 18,2 C 6,4 km/h (2 Bft) 100 %
24.09.2017 15:50 18,6 C 18,2 C 18,6 C 68 % 1020,2 hPa 0,0 l/m 4,8 km/h (1 Bft) SO 135 10 min 0,000 mm 543 W/m 12,6 C 18,6 C 11,3 km/h (2 Bft) 100 %
24.09.2017 16:00 18,7 C 18,6 C 18,7 C 63 % 1020,1 hPa 0,0 l/m 1,6 km/h (1 Bft) S-SO 157 10 min 0,203 mm 529 W/m 11,5 C 18,7 C 9,7 km/h (2 Bft) 100 %
24.09.2017 16:10 18,7 C 18,7 C 18,7 C 61 % 1020,0 hPa 0,0 l/m 4,8 km/h (1 Bft) SO 135 10 min 0,000 mm 179 W/m 11,0 C 18,7 C 14,5 km/h (3 Bft) 100 %
24.09.2017 16:20 18,8 C 18,7 C 18,8 C 64 % 1020,1 hPa 0,0 l/m 1,6 km/h (1 Bft) O-SO 112 10 min 0,000 mm 216 W/m 11,8 C 18,8 C 8,0 km/h (2 Bft) 100 %
24.09.2017 16:30 19,1 C 18,8 C 19,1 C 63 % 1019,9 hPa 0,0 l/m 3,2 km/h (1 Bft) NW 315 10 min 0,000 mm 232 W/m 11,9 C 19,1 C 11,3 km/h (2 Bft) 100 %
24.09.2017 16:40 19,4 C 19,1 C 19,4 C 61 % 1020,1 hPa 0,0 l/m 3,2 km/h (1 Bft) NW 315 10 min 0,000 mm 229 W/m 11,7 C 19,4 C 6,4 km/h (2 Bft) 99 %
24.09.2017 16:50 19,4 C 19,4 C 19,5 C 70 % 1020,1 hPa 0,0 l/m 8,0 km/h (2 Bft) NW 315 0 min 0,000 mm 148 W/m 13,8 C 18,7 C 19,3 km/h (3 Bft) 100 %
24.09.2017 17:00 18,3 C 18,3 C 19,4 C 75 % 1020,4 hPa 0,8 l/m 1,6 km/h (1 Bft) NW 315 0 min 0,102 mm 40 W/m 13,8 C 18,3 C 6,4 km/h (2 Bft) 100 %
24.09.2017 17:10 16,7 C 16,7 C 18,3 C 79 % 1020,6 hPa 2,6 l/m 0,0 km/h (0 Bft) O-NO 67 0 min 0,000 mm 32 W/m 13,0 C 16,7 C 3,2 km/h (1 Bft) 100 %
24.09.2017 17:20 15,1 C 15,1 C 16,7 C 84 % 1020,5 hPa 1,2 l/m 1,6 km/h (1 Bft) O 90 0 min 0,000 mm 32 W/m 12,4 C 15,1 C 8,0 km/h (2 Bft) 100 %
24.09.2017 17:30 14,3 C 14,3 C 15,1 C 87 % 1020,5 hPa 0,2 l/m 1,6 km/h (1 Bft) N 360 0 min 0,000 mm 30 W/m 12,2 C 14,3 C 8,0 km/h (2 Bft) 100 %
24.09.2017 17:40 13,8 C 13,8 C 14,3 C 88 % 1020,5 hPa 0,0 l/m 0,0 km/h (0 Bft) N 360 0 min 0,000 mm 32 W/m 11,8 C 13,8 C 3,2 km/h (1 Bft) 100 %
24.09.2017 17:50 13,6 C 13,6 C 13,8 C 88 % 1020,6 hPa 0,2 l/m 0,0 km/h (0 Bft) N 360 0 min 0,000 mm 39 W/m 11,6 C 13,6 C 3,2 km/h (1 Bft) 100 %
24.09.2017 18:00 13,6 C 13,6 C 13,6 C 89 % 1020,7 hPa 0,0 l/m 0,0 km/h (0 Bft) N 360 0 min 0,025 mm 44 W/m 11,8 C 13,6 C 1,6 km/h (1 Bft) 100 %
24.09.2017 18:10 13,5 C 13,5 C 13,6 C 89 % 1020,6 hPa 0,0 l/m 0,0 km/h (0 Bft) N 0 0 min 0,000 mm 53 W/m 11,7 C 13,5 C 0,0 km/h (0 Bft) 90 %
24.09.2017 18:20 13,4 C 13,4 C 13,6 C 89 % 1020,5 hPa 0,0 l/m 0,0 km/h (0 Bft) N 0 0 min 0,000 mm 51 W/m 11,6 C 13,4 C 0,0 km/h (0 Bft) 100 %
24.09.2017 18:30 13,3 C 13,3 C 13,4 C 88 % 1020,3 hPa 0,0 l/m 0,0 km/h (0 Bft) N 0 0 min 0,000 mm 51 W/m 11,4 C 13,3 C 0,0 km/h (0 Bft) 100 %
24.09.2017 18:40 13,3 C 13,3 C 13,3 C 88 % 1020,4 hPa 0,0 l/m 0,0 km/h (0 Bft) N 0 0 min 0,000 mm 49 W/m 11,4 C 13,3 C 0,0 km/h (0 Bft) 100 %
24.09.2017 18:50 13,2 C 13,2 C 13,3 C 89 % 1020,4 hPa 0,0 l/m 0,0 km/h (0 Bft) N 0 0 min 0,000 mm 33 W/m 11,4 C 13,2 C 0,0 km/h (0 Bft) 100 %
24.09.2017 19:00 13,1 C 13,1 C 13,2 C 89 % 1020,4 hPa 0,0 l/m 0,0 km/h (0 Bft) N 0 0 min 0,025 mm 21 W/m 11,3 C 13,1 C 0,0 km/h (0 Bft) 100 %
24.09.2017 19:10 12,9 C 12,9 C 13,1 C 89 % 1020,4 hPa 0,0 l/m 0,0 km/h (0 Bft) N 0 0 min 0,000 mm 12 W/m 11,1 C 12,9 C 0,0 km/h (0 Bft) 100 %
24.09.2017 19:20 12,8 C 12,8 C 12,9 C 89 % 1020,4 hPa 0,0 l/m 0,0 km/h (0 Bft) N 0 0 min 0,000 mm 7 W/m 11,0 C 12,8 C 0,0 km/h (0 Bft) 100 %
24.09.2017 19:30 12,6 C 12,6 C 12,8 C 89 % 1020,5 hPa 0,0 l/m 0,0 km/h (0 Bft) N 0 0 min 0,000 mm 0 W/m 10,8 C 12,6 C 0,0 km/h (0 Bft) 100 %
24.09.2017 19:40 12,5 C 12,5 C 12,7 C 89 % 1020,6 hPa 0,0 l/m 0,0 km/h (0 Bft) N 0 0 min 0,000 mm 0 W/m 10,7 C 12,5 C 0,0 km/h (0 Bft) 100 %
24.09.2017 19:50 12,3 C 12,3 C 12,5 C 89 % 1020,7 hPa 0,0 l/m 0,0 km/h (0 Bft) N 0 0 min 0,000 mm 0 W/m 10,5 C 12,3 C 0,0 km/h (0 Bft) 99 %
24.09.2017 20:00 12,1 C 12,1 C 12,3 C 89 % 1020,8 hPa 0,0 l/m 0,0 km/h (0 Bft) N 0 0 min 0,000 mm 0 W/m 10,3 C 12,1 C 0,0 km/h (0 Bft) 100 %
24.09.2017 20:10 11,9 C 11,9 C 12,1 C 89 % 1020,9 hPa 0,0 l/m 0,0 km/h (0 Bft) N 0 0 min 0,000 mm 0 W/m 10,1 C 11,9 C 0,0 km/h (0 Bft) 100 %
24.09.2017 20:20 11,8 C 11,7 C 11,9 C 89 % 1021,0 hPa 0,0 l/m 0,0 km/h (0 Bft) N 0 0 min 0,000 mm 0 W/m 10,0 C 11,8 C 0,0 km/h (0 Bft) 100 %
24.09.2017 20:30 11,6 C 11,6 C 11,8 C 89 % 1021,1 hPa 0,0 l/m 0,0 km/h (0 Bft) N 0 0 min 0,000 mm 0 W/m 9,8 C 11,6 C 0,0 km/h (0 Bft) 100 %
24.09.2017 20:40 11,4 C 11,4 C 11,6 C 89 % 1021,2 hPa 0,0 l/m 0,0 km/h (0 Bft) N 0 0 min 0,000 mm 0 W/m 9,7 C 11,4 C 0,0 km/h (0 Bft) 100 %
24.09.2017 20:50 11,4 C 11,4 C 11,4 C 89 % 1021,2 hPa 0,0 l/m 0,0 km/h (0 Bft) N 0 0 min 0,000 mm 0 W/m 9,7 C 11,4 C 0,0 km/h (0 Bft) 100 %
24.09.2017 21:00 11,3 C 11,3 C 11,4 C 89 % 1021,2 hPa 0,0 l/m 1,6 km/h (1 Bft) N 360 0 min 0,000 mm 0 W/m 9,6 C 11,3 C 3,2 km/h (1 Bft) 96 %
24.09.2017 21:10 11,2 C 11,2 C 11,3 C 89 % 1021,2 hPa 0,0 l/m 0,0 km/h (0 Bft) N 0 0 min 0,000 mm 0 W/m 9,5 C 11,2 C 0,0 km/h (0 Bft) 100 %
24.09.2017 21:20 11,2 C 11,2 C 11,2 C 89 % 1021,2 hPa 0,0 l/m 0,0 km/h (0 Bft) N 0 0 min 0,000 mm 0 W/m 9,5 C 11,2 C 0,0 km/h (0 Bft) 100 %
24.09.2017 21:30 11,1 C 11,1 C 11,2 C 89 % 1021,3 hPa 0,0 l/m 0,0 km/h (0 Bft) N 0 0 min 0,000 mm 0 W/m 9,4 C 11,1 C 0,0 km/h (0 Bft) 100 %
24.09.2017 21:40 11,1 C 11,0 C 11,1 C 89 % 1021,2 hPa 0,0 l/m 0,0 km/h (0 Bft) N 0 0 min 0,000 mm 0 W/m 9,4 C 11,1 C 0,0 km/h (0 Bft) 100 %
24.09.2017 21:50 11,0 C 11,0 C 11,1 C 89 % 1021,1 hPa 0,0 l/m 0,0 km/h (0 Bft) N 0 0 min 0,000 mm 0 W/m 9,3 C 11,0 C 0,0 km/h (0 Bft) 91 %
24.09.2017 22:00 10,9 C 10,9 C 11,0 C 89 % 1021,2 hPa 0,0 l/m 0,0 km/h (0 Bft) N 360 0 min 0,000 mm 0 W/m 9,2 C 10,9 C 1,6 km/h (1 Bft) 100 %
24.09.2017 22:10 10,8 C 10,8 C 10,9 C 89 % 1021,2 hPa 0,0 l/m 0,0 km/h (0 Bft) N 360 0 min 0,000 mm 0 W/m 9,1 C 10,8 C 1,6 km/h (1 Bft) 100 %
24.09.2017 22:20 10,6 C 10,6 C 10,8 C 89 % 1021,2 hPa 0,0 l/m 0,0 km/h (0 Bft) N 0 0 min 0,000 mm 0 W/m 8,9 C 10,6 C 0,0 km/h (0 Bft) 100 %
24.09.2017 22:30 10,4 C 10,4 C 10,6 C 89 % 1021,2 hPa 0,0 l/m 0,0 km/h (0 Bft) N 0 0 min 0,000 mm 0 W/m 8,7 C 10,4 C 0,0 km/h (0 Bft) 100 %
24.09.2017 22:40 10,3 C 10,3 C 10,4 C 89 % 1021,2 hPa 0,0 l/m 1,6 km/h (1 Bft) N 360 0 min 0,000 mm 0 W/m 8,6 C 10,3 C 3,2 km/h (1 Bft) 100 %
24.09.2017 22:50 10,3 C 10,3 C 10,4 C 89 % 1021,3 hPa 0,0 l/m 0,0 km/h (0 Bft) N 0 0 min 0,000 mm 0 W/m 8,6 C 10,3 C 0,0 km/h (0 Bft) 100 %
24.09.2017 23:00 10,2 C 10,2 C 10,3 C 89 % 1021,2 hPa 0,0 l/m 0,0 km/h (0 Bft) N 0 0 min 0,000 mm 0 W/m 8,5 C 10,2 C 0,0 km/h (0 Bft) 100 %
24.09.2017 23:10 10,1 C 10,1 C 10,2 C 89 % 1021,1 hPa 0,0 l/m 0,0 km/h (0 Bft) N 0 0 min 0,000 mm 0 W/m 8,4 C 10,1 C 0,0 km/h (0 Bft) 100 %
24.09.2017 23:20 10,1 C 10,1 C 10,1 C 90 % 1021,1 hPa 0,0 l/m 0,0 km/h (0 Bft) N 0 0 min 0,000 mm 0 W/m 8,5 C 10,1 C 0,0 km/h (0 Bft) 100 %
24.09.2017 23:30 10,1 C 10,1 C 10,1 C 90 % 1021,1 hPa 0,0 l/m 0,0 km/h (0 Bft) N 0 0 min 0,000 mm 0 W/m 8,5 C 10,1 C 0,0 km/h (0 Bft) 100 %
24.09.2017 23:40 9,9 C 9,9 C 10,1 C 89 % 1021,0 hPa 0,0 l/m 0,0 km/h (0 Bft) N 0 0 min 0,000 mm 0 W/m 8,2 C 9,9 C 0,0 km/h (0 Bft) 100 %
24.09.2017 23:50 9,8 C 9,8 C 9,9 C 89 % 1021,0 hPa 0,0 l/m 0,0 km/h (0 Bft) N 360 0 min 0,000 mm 0 W/m 8,1 C 9,8 C 1,6 km/h (1 Bft) 100 %
_ Min-Zeit 03:20 03:20 05:30 16:10 04:50 - 00:40 - - - - - 02:30 05:20 00:50 01:10
Minimum _ 8,7 C 8,7 C 8,7 C 61 % 1019,6 hPa - 0,0 km/h (0 Bft) - - - - - 7,1 C 8,7 C 0,0 km/h (0 Bft) 89 %
_ Max-Zeit 16:50 16:50 16:50 04:40 12:00 17:10 16:50 - - 10:40 14:00 12:50 17:00 16:40 16:50 00:00
Maximum _ 19,5 C 19,4 C 19,5 C 90 % 1021,3 hPa 2,6 l/m 8,0 km/h
NW (2 Bft)
- - 10 min 0,330 mm 735 W/m 13,8 C 19,4 C 19,3 km/h
NW (3 Bft)
100 %
Durchschnitt _ 12,2 C 12,1 C 12,3 C 85 % 1020,5 hPa #5,2 l/m 0,6 km/h (0 Bft) N-NW - #6:00 h #1,396 mm 246 W/m 9,7 C 12,2 C 2,4 km/h (1 Bft) 100 %
PRIVATE WETTERSTATION BILLIGHEIM-ALLFELD - www.neckar-odenwald-wetter.de - Holger Sonntag